Tracking 23114 objects as of 14-May-2021
HD Live streaming from Space Station
objects crossing your sky now

SL-12 R/B(2)

Track SL-12 R/B(2) now!


NORAD ID: 28240
Int'l Code: 2004-015D
Perigee: 35,595.2 km
Apogee: 35,741.0 km
Inclination: 11.7 °
Period: 1,429.7 minutes
Semi major axis: 42039 km
RCS: 1.2715 m2 (large)
Launch date: April 26, 2004
Source: Commonwealth of Independent States (former USSR) (CIS)
Launch site: TYURATAM MISSILE AND SPACE COMPLEX (TTMTR)

Note: This is a ROCKET BODY
aabbcc
Your satellite tracking list
Your tracking list is empty




NASA's NSSDC Master Catalog

Two Line Element Set (TLE):
1 28240U 04015D   21133.46278944 -.00000189  00000-0  00000-0 0  9999
2 28240  11.7206  27.3292 0017349 302.5128 327.6107  1.00721607 62665
Source of the keplerian elements: AFSPC